RYR10XW LERS-EHEH

Flight info

Callsign RYR10XW
Flight time N/A
Altitude 30000
Route ARBEK T113 RUTIP DCT OKABI/N0434F360 DCT TOU DCT ADABI DCT BOKNO UN858 VANAD UN874 ARSAF DCT EGOZE DCT CMB DCT VEKIN DCT ADUTO N873 FERDI Y18 DENUT
Aircraft B738/M-SDE2E3FGHIRWXY/LB1

Departure

Time N/A
Airport Reus Airport (LERS)

Arrival

Time 2026-04-27 19:16
Airport Eindhoven Airport (EHEH)
Time Latitude Longitude Altitude Speed Heading
2026-04-27 18:25 48.13570 1.05846 37152 ft 461 kts 15°
2026-04-27 18:25 48.19674 1.08964 37152 ft 461 kts 15°
2026-04-27 18:26 48.25750 1.12065 37164 ft 461 kts 15°
2026-04-27 18:26 48.31783 1.15138 37155 ft 461 kts 15°
2026-04-27 18:27 48.37859 1.18242 37154 ft 461 kts 15°
2026-04-27 18:27 48.43939 1.21358 37176 ft 461 kts 15°
2026-04-27 18:28 48.50005 1.24475 37171 ft 461 kts 15°
2026-04-27 18:28 48.56094 1.27608 37165 ft 462 kts 15°
2026-04-27 18:29 48.62185 1.30683 37172 ft 461 kts 14°
2026-04-27 18:29 48.68281 1.33745 37181 ft 462 kts 14°
2026-04-27 18:30 48.74377 1.36823 37179 ft 462 kts 14°
2026-04-27 18:30 48.80470 1.39915 37176 ft 462 kts 14°
2026-04-27 18:31 48.86579 1.43024 37179 ft 463 kts 14°
2026-04-27 18:31 48.92688 1.46139 37181 ft 463 kts 15°
2026-04-27 18:32 48.95653 1.48058 37168 ft 467 kts 26°
2026-04-27 18:32 48.98401 1.50736 37190 ft 470 kts 35°
2026-04-27 18:32 49.03064 1.57742 37193 ft 474 kts 46°
2026-04-27 18:33 49.07390 1.65346 37201 ft 474 kts 47°
2026-04-27 18:33 49.11735 1.72933 37178 ft 475 kts 46°
2026-04-27 18:34 49.16116 1.80494 37170 ft 475 kts 46°
2026-04-27 18:34 49.20502 1.88052 37163 ft 476 kts 46°
2026-04-27 18:35 49.24885 1.95631 37180 ft 476 kts 46°
2026-04-27 18:35 49.29176 2.03079 37180 ft 476 kts 46°
2026-04-27 18:36 49.33555 2.10700 37161 ft 477 kts 46°
2026-04-27 18:36 49.37935 2.18346 37160 ft 476 kts 46°
2026-04-27 18:37 49.42301 2.25994 37143 ft 476 kts 46°
2026-04-27 18:37 49.46666 2.33662 37169 ft 476 kts 46°
2026-04-27 18:38 49.51066 2.41242 37170 ft 474 kts 39°
2026-04-27 18:38 49.53623 2.44379 37171 ft 467 kts 28°
2026-04-27 18:38 49.56445 2.46804 37167 ft 461 kts 19°
2026-04-27 18:39 49.62296 2.50744 37166 ft 459 kts 18°
2026-04-27 18:39 49.68152 2.54663 37172 ft 458 kts 19°
2026-04-27 18:40 49.73983 2.58643 37195 ft 458 kts 19°
2026-04-27 18:40 49.79809 2.62671 37182 ft 458 kts 19°
2026-04-27 18:41 49.85617 2.66707 37183 ft 457 kts 19°
2026-04-27 18:41 49.91381 2.70724 37183 ft 457 kts 19°
2026-04-27 18:42 49.96225 2.74107 36911 ft 455 kts 19°
2026-04-27 18:42 50.00000 2.76751 36481 ft 446 kts 19°
2026-04-27 18:42 50.02813 2.78724 36093 ft 442 kts 19°
2026-04-27 18:43 50.05293 2.80464 35758 ft 439 kts 19°
2026-04-27 18:43 50.06205 2.81104 35628 ft 438 kts 19°
2026-04-27 18:43 50.08969 2.83045 35247 ft 435 kts 19°
2026-04-27 18:43 50.11725 2.84983 34859 ft 432 kts 19°
2026-04-27 18:44 50.14454 2.86904 34471 ft 430 kts 19°
2026-04-27 18:44 50.17179 2.88824 34082 ft 429 kts 18°
2026-04-27 18:44 50.19893 2.90738 33622 ft 427 kts 18°
2026-04-27 18:44 50.22591 2.92645 33233 ft 424 kts 18°
2026-04-27 18:45 50.25274 2.94544 32831 ft 422 kts 18°
2026-04-27 18:45 50.27934 2.96429 32462 ft 419 kts 18°
2026-04-27 18:45 50.30578 2.98305 32087 ft 416 kts 18°
2026-04-27 18:45 50.33141 3.00126 31727 ft 414 kts 18°
2026-04-27 18:46 50.35754 3.01984 31361 ft 412 kts 18°
2026-04-27 18:46 50.38360 3.03839 31038 ft 410 kts 18°
2026-04-27 18:46 50.40951 3.05685 30647 ft 409 kts 18°
2026-04-27 18:46 50.43537 3.07530 30284 ft 407 kts 18°
2026-04-27 18:47 50.46108 3.09367 29854 ft 406 kts 18°
2026-04-27 18:47 50.48675 3.11204 29459 ft 403 kts 18°
2026-04-27 18:47 50.51213 3.13022 29073 ft 400 kts 18°
2026-04-27 18:47 50.53738 3.14834 28698 ft 397 kts 19°
2026-04-27 18:48 50.56239 3.16630 28336 ft 394 kts 19°
2026-04-27 18:48 50.58723 3.18416 27965 ft 391 kts 19°
2026-04-27 18:48 50.61188 3.20190 27648 ft 388 kts 19°
2026-04-27 18:48 50.63632 3.21951 27289 ft 385 kts 19°
2026-04-27 18:49 50.66060 3.23701 26930 ft 383 kts 19°
2026-04-27 18:49 50.68476 3.25444 26567 ft 380 kts 19°
2026-04-27 18:49 50.70867 3.27172 26209 ft 377 kts 19°
2026-04-27 18:49 50.73249 3.28897 25859 ft 375 kts 19°
2026-04-27 18:50 50.75611 3.30609 25518 ft 373 kts 19°
2026-04-27 18:50 50.77965 3.32316 25170 ft 371 kts 19°
2026-04-27 18:50 50.80304 3.34015 24824 ft 369 kts 19°
2026-04-27 18:50 50.82578 3.35667 24490 ft 367 kts 20°
2026-04-27 18:51 50.82957 3.35943 24465 ft 367 kts 20°
2026-04-27 18:51 50.85268 3.37625 24094 ft 366 kts 20°
2026-04-27 18:51 50.87544 3.39296 23739 ft 365 kts 22°
2026-04-27 18:52 50.89671 3.41473 23462 ft 366 kts 36°
2026-04-27 18:52 50.91473 3.44308 23203 ft 365 kts 45°
2026-04-27 18:52 50.93150 3.47310 22927 ft 362 kts 45°
2026-04-27 18:53 50.96446 3.53286 22379 ft 357 kts 45°
2026-04-27 18:53 50.98082 3.56244 22118 ft 357 kts 45°
2026-04-27 18:53 50.99731 3.59214 21858 ft 359 kts 45°
2026-04-27 18:53 51.01373 3.62165 21609 ft 360 kts 45°
2026-04-27 18:54 51.02495 3.64180 21433 ft 359 kts 45°
2026-04-27 18:54 51.04116 3.67092 21177 ft 357 kts 45°
2026-04-27 18:54 51.05749 3.70025 20924 ft 355 kts 45°
2026-04-27 18:54 51.07415 3.73021 20663 ft 354 kts 45°
2026-04-27 18:55 51.09019 3.75907 20417 ft 352 kts 45°
2026-04-27 18:55 51.10636 3.78820 20173 ft 350 kts 45°
2026-04-27 18:55 51.12246 3.81723 19924 ft 349 kts 45°
2026-04-27 18:55 51.13866 3.84646 19614 ft 350 kts 45°
2026-04-27 18:56 51.15457 3.87520 19257 ft 352 kts 45°
2026-04-27 18:56 51.17099 3.90489 18892 ft 351 kts 45°
2026-04-27 18:56 51.18688 3.93369 18544 ft 350 kts 45°
2026-04-27 18:56 51.20288 3.96272 18250 ft 346 kts 45°
2026-04-27 18:57 51.21861 3.99130 17969 ft 341 kts 46°
2026-04-27 18:57 51.23374 4.01880 17700 ft 337 kts 46°
2026-04-27 18:57 51.24907 4.04672 17428 ft 332 kts 46°
2026-04-27 18:57 51.26420 4.07426 17173 ft 329 kts 46°
2026-04-27 18:58 51.27920 4.10161 16916 ft 326 kts 46°
2026-04-27 18:58 51.29406 4.12873 16659 ft 323 kts 46°
2026-04-27 18:58 51.30882 4.15570 16394 ft 321 kts 46°
2026-04-27 18:58 51.32348 4.18251 16143 ft 320 kts 46°
2026-04-27 18:59 51.33811 4.20928 15897 ft 321 kts 46°
2026-04-27 18:59 51.35281 4.23622 15645 ft 321 kts 46°
2026-04-27 18:59 51.36751 4.26319 15394 ft 321 kts 46°
2026-04-27 18:59 51.38216 4.29011 15161 ft 322 kts 46°
2026-04-27 19:00 51.39693 4.31727 14915 ft 322 kts 46°
2026-04-27 19:00 51.41162 4.34431 14670 ft 322 kts 46°
2026-04-27 19:00 51.42633 4.37142 14432 ft 322 kts 46°
2026-04-27 19:00 51.44100 4.39850 14196 ft 322 kts 46°
2026-04-27 19:01 51.45570 4.42565 13955 ft 323 kts 46°
2026-04-27 19:01 51.47041 4.45284 13687 ft 321 kts 46°
2026-04-27 19:01 51.48494 4.47973 13420 ft 317 kts 47°
2026-04-27 19:01 51.49929 4.50631 13167 ft 312 kts 47°
2026-04-27 19:02 51.51340 4.53246 12896 ft 308 kts 47°
2026-04-27 19:02 51.52680 4.55907 12616 ft 305 kts 52°
2026-04-27 19:02 51.53914 4.58655 12365 ft 302 kts 53°
2026-04-27 19:02 51.55113 4.61397 12100 ft 298 kts 53°
2026-04-27 19:03 51.56301 4.64117 11848 ft 297 kts 53°
2026-04-27 19:03 51.57491 4.66826 11596 ft 296 kts 54°
2026-04-27 19:03 51.58678 4.69516 11349 ft 295 kts 53°
2026-04-27 19:03 51.59463 4.71290 11171 ft 294 kts 53°
2026-04-27 19:04 51.61049 4.74872 10848 ft 293 kts 54°
2026-04-27 19:04 51.62231 4.77543 10600 ft 293 kts 54°
2026-04-27 19:04 51.63415 4.80218 10351 ft 292 kts 54°
2026-04-27 19:04 51.64596 4.82886 10112 ft 292 kts 54°
2026-04-27 19:05 51.65769 4.85540 9842 ft 291 kts 54°
2026-04-27 19:05 51.66936 4.88184 9580 ft 288 kts 54°
2026-04-27 19:05 51.68007 4.90880 9292 ft 286 kts 68°
2026-04-27 19:05 51.68312 4.93986 9021 ft 281 kts 96°
2026-04-27 19:06 51.67813 4.96993 8758 ft 277 kts 115°
2026-04-27 19:06 51.67002 4.99792 8489 ft 275 kts 116°
2026-04-27 19:06 51.66223 5.02443 8211 ft 274 kts 115°
2026-04-27 19:06 51.65427 5.05199 8068 ft 267 kts 115°
2026-04-27 19:07 51.64654 5.07897 7830 ft 265 kts 115°
2026-04-27 19:07 51.63888 5.10585 7578 ft 263 kts 114°
2026-04-27 19:07 51.63280 5.13351 7323 ft 262 kts 105°
2026-04-27 19:07 51.62786 5.16171 7085 ft 263 kts 111°
2026-04-27 19:08 51.61681 5.18480 6786 ft 263 kts 146°
2026-04-27 19:08 51.59975 5.19452 6501 ft 263 kts 176°
2026-04-27 19:08 51.58187 5.19248 6234 ft 261 kts 189°
2026-04-27 19:08 51.56383 5.18702 5947 ft 260 kts 191°
2026-04-27 19:09 51.54633 5.18157 5678 ft 260 kts 191°
2026-04-27 19:09 51.52862 5.17626 5412 ft 259 kts 190°
2026-04-27 19:09 51.51092 5.17109 5137 ft 258 kts 190°
2026-04-27 19:09 51.49323 5.16604 4877 ft 258 kts 189°
2026-04-27 19:10 51.47563 5.16112 4597 ft 257 kts 189°
2026-04-27 19:10 51.45808 5.15623 4346 ft 255 kts 188°
2026-04-27 19:10 51.44078 5.15143 4216 ft 249 kts 188°
2026-04-27 19:10 51.42940 5.14827 4124 ft 244 kts 188°
2026-04-27 19:11 51.40763 5.14223 3979 ft 234 kts 188°
2026-04-27 19:11 51.39180 5.13868 3870 ft 225 kts 176°
2026-04-27 19:11 51.37752 5.14636 3693 ft 217 kts 139°
2026-04-27 19:11 51.36714 5.16326 3475 ft 209 kts 125°
2026-04-27 19:12 51.35871 5.18173 3239 ft 202 kts 122°
2026-04-27 19:12 51.35068 5.19974 3000 ft 195 kts 122°
2026-04-27 19:12 51.34298 5.21711 2787 ft 188 kts 119°
2026-04-27 19:12 51.33973 5.23621 2540 ft 174 kts 76°
2026-04-27 19:13 51.34558 5.25157 2452 ft 158 kts 48°
2026-04-27 19:13 51.35322 5.26330 2254 ft 146 kts 42°
2026-04-27 19:13 51.36064 5.27350 2094 ft 140 kts 40°
2026-04-27 19:13 51.36848 5.28288 1871 ft 138 kts 38°
2026-04-27 19:14 51.37620 5.29163 1687 ft 134 kts 37°
2026-04-27 19:14 51.38387 5.30024 1517 ft 134 kts 37°
2026-04-27 19:14 51.39180 5.30877 1243 ft 140 kts 37°
2026-04-27 19:14 51.39949 5.31788 1014 ft 135 kts 37°
2026-04-27 19:15 51.40715 5.32629 857 ft 135 kts 36°
2026-04-27 19:15 51.41494 5.33510 810 ft 138 kts 37°
2026-04-27 19:15 51.42278 5.34384 561 ft 136 kts 35°
2026-04-27 19:15 51.43049 5.35246 389 ft 136 kts 36°
2026-04-27 19:16 51.43820 5.36114 176 ft 137 kts 36°
2026-04-27 19:16 51.44340 5.36697 88 ft 131 kts 36°
2026-04-27 19:16 51.45130 5.37582 66 ft 67 kts 35°
2026-04-27 19:16 51.45333 5.37810 77 ft 7 kts 35°
2026-04-27 19:17 51.45362 5.37886 75 ft 11 kts 97°
2026-04-27 19:17 51.45335 5.37981 69 ft 10 kts 122°
2026-04-27 19:17 51.45303 5.38057 70 ft 5 kts 124°
2026-04-27 19:17 51.45284 5.38101 68 ft 4 kts 125°
2026-04-27 19:18 51.45267 5.38142 67 ft 4 kts 124°
2026-04-27 19:18 51.45249 5.38182 66 ft 5 kts 123°
2026-04-27 19:18 51.45253 5.38268 67 ft 10 kts 50°
2026-04-27 19:18 51.45312 5.38341 68 ft 9 kts 36°
2026-04-27 19:19 51.45365 5.38401 72 ft 9 kts 28°
2026-04-27 19:19 51.45420 5.38372 70 ft 10 kts 313°
2026-04-27 19:19 51.45454 5.38284 70 ft 9 kts 307°
2026-04-27 19:19 51.45505 5.38180 65 ft 14 kts 307°
2026-04-27 19:20 51.45560 5.38055 71 ft 15 kts 303°
2026-04-27 19:20 51.45614 5.37937 74 ft 11 kts 312°
2026-04-27 19:20 51.45687 5.37930 74 ft 13 kts 30°
2026-04-27 19:20 51.45776 5.38027 66 ft 18 kts 34°
2026-04-27 19:21 51.45885 5.38148 67 ft 19 kts 35°
2026-04-27 19:21 51.45967 5.38240 71 ft 10 kts 37°
2026-04-27 19:21 51.45980 5.38343 68 ft 13 kts 120°
2026-04-27 19:21 51.45923 5.38477 69 ft 17 kts 123°
2026-04-27 19:22 51.45850 5.38647 74 ft 18 kts 126°
2026-04-27 19:22 51.45795 5.38762 70 ft 8 kts 141°
2026-04-27 19:22 51.45752 5.38822 74 ft 8 kts 130°
2026-04-27 19:22 51.45723 5.38888 74 ft 6 kts 125°
2026-04-27 19:23 51.45720 5.38894 74 ft 1 kts 124°
2026-04-27 19:23 51.45718 5.38899 74 ft 0 kts 124°